QPF
0.01 0.01 0.01 0.03 0.03 0.02 0.03 0.03 0.02 0.01 0.01 0.01 0.02 0.02 0.03 0.02 0.04 0.05 0.05 0.05 0.04 0.04 0.03 0.04 0.06 0.08 0.08 0.05 0.04 0.04 0.03 0.03 0.04 0.03 0.02 0.03 0.04 0.06
0.01 0.01 0.01 0.01 0.02 0.02 0.02 0.02 0.02 0.01 0.01 0.01 0.02 0.02 0.02 0.02 0.03 0.03 0.04 0.04 0.03 0.03 0.03 0.03 0.03 0.05 0.07 0.05 0.03 0.04 0.04 0.04 0.02 0.02 0.01 0.02 0.02 0.02
0.03 0.02 0.01 0.01 0.01 0.02 0.02 0.02 0.02 0.01 0.01 0.02 0.02 0.02 0.02 0.02 0.03 0.03 0.03 0.03 0.03 0.03 0.02 0.02 0.01 0.02 0.04 0.05 0.04 0.03 0.04 0.04 0.04 0.03 0.02 0.01 0.01 0.01
0.03 0.03 0.02 0.01 0.02 0.02 0.01 0.01 0.02 0.03 0.02 0.02 0.02 0.02 0.02 0.02 0.02 0.02 0.03 0.03 0.03 0.03 0.02 0.01 0.01 0.01 0.02 0.05 0.06 0.04 0.04 0.04 0.04 0.03 0.03 0.02 0.02 0.01
0.03 0.03 0.02 0.02 0.01 0.01 0.01 0.02 0.03 0.04 0.03 0.02 0.02 0.02 0.01 0.01 0.02 0.03 0.04 0.03 0.03 0.03 0.03 0.02 0.01 0.01 0.01 0.03 0.05 0.05 0.05 0.05 0.04 0.03 0.03 0.03 0.03 0.02
0.03 0.02 0.02 0.02 0.01 0.01 0.02 0.03 0.04 0.04 0.03 0.02 0.02 0.01 0.02 0.02 0.01 0.02 0.03 0.04 0.03 0.03 0.04 0.03 0.03 0.02 0.02 0.01 0.03 0.05 0.06 0.07 0.06 0.04 0.04 0.04 0.04 0.02
0.02 0.02 0.01 0.01 0.02 0.03 0.02 0.02 0.03 0.03 0.02 0.02 0.02 0.02 0.02 0.02 0.02 0.02 0.03 0.04 0.04 0.04 0.04 0.03 0.03 0.03 0.03 0.03 0.03 0.05 0.07 0.08 0.08 0.06 0.05 0.05 0.05 0.03
0.03 0.03 0.02 0.01 0.02 0.02 0.02 0.02 0.02 0.01 0.02 0.02 0.02 0.02 0.02 0.03 0.03 0.03 0.03 0.03 0.04 0.04 0.04 0.03 0.02 0.02 0.02 0.02 0.03 0.04 0.05 0.07 0.08 0.07 0.06 0.06 0.05 0.03
0.05 0.05 0.04 0.03 0.02 0.02 0.03 0.03 0.02 0.02 0.02 0.01 0.01 0.01 0.01 0.02 0.03 0.03 0.02 0.02 0.02 0.03 0.02 0.02 0.02 0.02 0.02 0.02 0.03 0.03 0.03 0.03 0.05 0.07 0.07 0.07 0.05 0.03
0.07 0.06 0.05 0.04 0.04 0.04 0.04 0.03 0.02 0.03 0.03 0.03 0.02 0.01 0.02 0.02 0.02 0.02 0.02 0.01 0.02 0.02 0.02 0.01 0.01 0.02 0.02 0.02 0.02 0.03 0.03 0.02 0.03 0.05 0.07 0.06 0.04 0.02
0.07 0.05 0.03 0.03 0.04 0.06 0.05 0.04 0.03 0.03 0.03 0.04 0.03 0.02 0.02 0.02 0.01 0.01 0.01 0.02 0.01 0.01 0.02 0.03 0.02 0.03 0.03 0.02 0.02 0.03 0.03 0.03 0.02 0.03 0.04 0.06 0.04 0.04
0.04 0.03 0.02 0.01 0.02 0.03 0.04 0.04 0.04 0.03 0.03 0.03 0.02 0.01 0.01 0.02 0.02 0.01 0.01 0.02 0.02 0.02 0.03 0.03 0.03 0.04 0.04 0.04 0.04 0.04 0.04 0.04 0.03 0.03 0.03 0.04 0.03 0.03
0.02 0.02 0.02 0.02 0.02 0.02 0.02 0.03 0.03 0.02 0.03 0.02 0.01 0.01 0.01 0.01 0.02 0.02 0.02 0.02 0.02 0.02 0.02 0.03 0.03 0.04 0.05 0.06 0.06 0.06 0.05 0.04 0.03 0.03 0.03 0.04 0.04 0.03
0.02 0.02 0.03 0.04 0.03 0.03 0.03 0.03 0.03 0.02 0.02 0.02 0.02 0.01 0.01 0.02 0.02 0.02 0.01 0.01 0.01 0.01 0.01 0.01 0.02 0.03 0.04 0.06 0.07 0.07 0.05 0.03 0.03 0.03 0.04 0.05 0.05 0.04
0.02 0.01 0.01 0.02 0.02 0.01 0.02 0.03 0.03 0.03 0.02 0.01 0.01 0.01 0.01 0.01 0.01 0.01 0.01 0.01 0.01 0.01 0.01 0.01 0.02 0.03 0.04 0.03 0.04 0.04 0.04 0.04 0.03 0.03 0.05 0.05 0.06 0.06
0.02 0.02 0.02 0.01 0.01 0.01 0.02 0.03 0.02 0.01 0.01 0.01 0.01 0.01 0.01 0.01 0.01 0.01 0.00 0.00 0.01 0.01 0.01 0.02 0.03 0.02 0.03 0.03 0.04 0.04 0.03 0.04 0.04 0.04 0.05 0.06 0.07 0.08
0.02 0.02 0.02 0.02 0.02 0.02 0.02 0.02 0.02 0.01 0.01 0.01 0.01 0.00 0.00 0.00 0.00 0.00 0.00 0.00 0.00 0.01 0.01 0.02 0.02 0.02 0.03 0.03 0.04 0.03 0.03 0.04 0.05 0.06 0.06 0.06 0.07 0.08
0.03 0.02 0.02 0.01 0.01 0.02 0.02 0.02 0.02 0.01 0.02 0.02 0.01 0.01 0.00 0.00 0.00 0.00 0.00 0.00 0.01 0.01 0.01 0.01 0.01 0.01 0.01 0.01 0.02 0.02 0.03 0.04 0.06 0.08 0.08 0.06 0.05 0.07
0.02 0.02 0.01 0.01 0.01 0.02 0.02 0.02 0.02 0.02 0.02 0.01 0.01 0.01 0.01 0.01 0.01 0.01 0.01 0.01 0.01 0.01 0.01 0.01 0.01 0.01 0.02 0.02 0.01 0.01 0.02 0.04 0.06 0.06 0.07 0.06 0.06 0.05
0.01 0.01 0.01 0.01 0.02 0.02 0.02 0.02 0.02 0.02 0.02 0.01 0.01 0.01 0.01 0.01 0.01 0.01 0.02 0.02 0.01 0.01 0.01 0.00 0.01 0.01 0.01 0.02 0.02 0.02 0.03 0.05 0.06 0.06 0.07 0.07 0.07 0.07
0.01 0.01 0.01 0.01 0.01 0.02 0.02 0.01 0.02 0.02 0.03 0.03 0.02 0.02 0.02 0.02 0.01 0.02 0.02 0.03 0.03 0.02 0.01 0.01 0.01 0.01 0.01 0.01 0.01 0.01 0.02 0.03 0.04 0.05 0.07 0.08 0.07 0.06
0.01 0.01 0.01 0.01 0.02 0.01 0.01 0.01 0.01 0.02 0.02 0.03 0.03 0.03 0.03 0.02 0.02 0.02 0.02 0.02 0.03 0.03 0.02 0.02 0.02 0.01 0.01 0.01 0.01 0.01 0.02 0.02 0.02 0.03 0.04 0.05 0.05 0.05
0.01 0.01 0.01 0.01 0.01 0.01 0.01 0.01 0.01 0.02 0.02 0.03 0.03 0.03 0.03 0.02 0.02 0.02 0.02 0.02 0.02 0.02 0.02 0.02 0.02 0.02 0.02 0.02 0.02 0.01 0.01 0.01 0.02 0.02 0.02 0.03 0.03 0.03
MSLP
1013.29 1013.55 1013.86 1014.21 1014.57 1014.91 1015.20 1015.42 1015.59 1015.69 1015.74 1015.75 1015.74 1015.72 1015.70 1015.71 1015.73 1015.78 1015.87 1015.99 1016.15 1016.34 1016.54 1016.74 1016.94 1017.10 1017.22 1017.30 1017.33 1017.34 1017.35 1017.37 1017.41 1017.48 1017.59 1017.72 1017.86 1017.99
1013.09 1013.33 1013.63 1013.98 1014.34 1014.68 1015.00 1015.26 1015.48 1015.63 1015.73 1015.80 1015.83 1015.84 1015.84 1015.84 1015.84 1015.86 1015.89 1015.95 1016.03 1016.13 1016.25 1016.38 1016.50 1016.61 1016.69 1016.74 1016.77 1016.78 1016.80 1016.83 1016.89 1016.98 1017.10 1017.23 1017.35 1017.46
1013.02 1013.24 1013.51 1013.82 1014.16 1014.50 1014.82 1015.12 1015.37 1015.58 1015.75 1015.88 1015.98 1016.05 1016.09 1016.11 1016.12 1016.11 1016.10 1016.09 1016.08 1016.09 1016.11 1016.14 1016.18 1016.21 1016.23 1016.25 1016.26 1016.28 1016.31 1016.36 1016.43 1016.54 1016.66 1016.79 1016.91 1017.01
1013.11 1013.29 1013.52 1013.79 1014.09 1014.40 1014.71 1015.01 1015.29 1015.55 1015.78 1015.98 1016.16 1016.30 1016.41 1016.47 1016.50 1016.49 1016.45 1016.38 1016.30 1016.22 1016.14 1016.07 1016.01 1015.96 1015.92 1015.90 1015.89 1015.89 1015.93 1015.99 1016.08 1016.20 1016.33 1016.47 1016.59 1016.67
1013.34 1013.48 1013.66 1013.89 1014.14 1014.41 1014.69 1014.98 1015.26 1015.55 1015.82 1016.09 1016.33 1016.54 1016.72 1016.84 1016.90 1016.91 1016.86 1016.76 1016.63 1016.48 1016.32 1016.16 1016.02 1015.90 1015.80 1015.73 1015.69 1015.68 1015.71 1015.78 1015.87 1016.00 1016.13 1016.27 1016.38 1016.47
1013.65 1013.77 1013.92 1014.09 1014.29 1014.50 1014.74 1014.99 1015.26 1015.55 1015.84 1016.14 1016.44 1016.71 1016.94 1017.12 1017.23 1017.27 1017.23 1017.13 1016.97 1016.78 1016.57 1016.36 1016.16 1015.98 1015.84 1015.73 1015.66 1015.64 1015.66 1015.72 1015.81 1015.93 1016.06 1016.19 1016.30 1016.38
1013.95 1014.07 1014.19 1014.34 1014.49 1014.66 1014.84 1015.05 1015.28 1015.54 1015.82 1016.12 1016.44 1016.74 1017.02 1017.24 1017.39 1017.47 1017.47 1017.39 1017.24 1017.04 1016.82 1016.59 1016.37 1016.17 1016.00 1015.88 1015.79 1015.75 1015.76 1015.79 1015.87 1015.97 1016.08 1016.20 1016.30 1016.38
1014.16 1014.29 1014.42 1014.55 1014.68 1014.81 1014.95 1015.10 1015.28 1015.49 1015.74 1016.02 1016.32 1016.63 1016.91 1017.16 1017.35 1017.47 1017.51 1017.47 1017.36 1017.19 1017.00 1016.79 1016.58 1016.39 1016.23 1016.11 1016.02 1015.97 1015.95 1015.97 1016.02 1016.09 1016.17 1016.27 1016.35 1016.42
1014.18 1014.35 1014.51 1014.66 1014.79 1014.91 1015.02 1015.13 1015.25 1015.41 1015.60 1015.84 1016.10 1016.38 1016.66 1016.91 1017.12 1017.27 1017.35 1017.36 1017.30 1017.19 1017.05 1016.89 1016.73 1016.59 1016.46 1016.35 1016.28 1016.22 1016.20 1016.19 1016.21 1016.25 1016.30 1016.36 1016.43 1016.48
1013.98 1014.21 1014.43 1014.62 1014.78 1014.91 1015.01 1015.10 1015.18 1015.29 1015.43 1015.60 1015.81 1016.05 1016.30 1016.54 1016.75 1016.92 1017.03 1017.09 1017.09 1017.04 1016.97 1016.89 1016.79 1016.71 1016.63 1016.57 1016.51 1016.47 1016.44 1016.42 1016.41 1016.41 1016.43 1016.46 1016.51 1016.55
1013.57 1013.87 1014.16 1014.42 1014.63 1014.79 1014.91 1015.00 1015.06 1015.14 1015.23 1015.35 1015.50 1015.70 1015.90 1016.12 1016.32 1016.49 1016.62 1016.71 1016.76 1016.78 1016.78 1016.77 1016.75 1016.73 1016.72 1016.70 1016.69 1016.67 1016.64 1016.61 1016.58 1016.56 1016.55 1016.56 1016.58 1016.61
1013.03 1013.39 1013.75 1014.07 1014.35 1014.56 1014.71 1014.82 1014.89 1014.94 1015.00 1015.09 1015.20 1015.35 1015.52 1015.70 1015.88 1016.05 1016.19 1016.30 1016.39 1016.45 1016.51 1016.56 1016.61 1016.66 1016.70 1016.74 1016.77 1016.77 1016.77 1016.74 1016.71 1016.68 1016.65 1016.65 1016.66 1016.68
1012.43 1012.84 1013.25 1013.63 1013.96 1014.22 1014.42 1014.55 1014.63 1014.69 1014.74 1014.81 1014.90 1015.02 1015.17 1015.32 1015.48 1015.63 1015.77 1015.89 1015.99 1016.09 1016.18 1016.27 1016.37 1016.47 1016.57 1016.66 1016.73 1016.78 1016.79 1016.79 1016.76 1016.74 1016.71 1016.70 1016.72 1016.74
1011.88 1012.31 1012.74 1013.15 1013.51 1013.80 1014.02 1014.17 1014.27 1014.35 1014.41 1014.48 1014.57 1014.68 1014.82 1014.96 1015.10 1015.24 1015.37 1015.48 1015.59 1015.69 1015.80 1015.92 1016.05 1016.19 1016.33 1016.46 1016.57 1016.65 1016.71 1016.73 1016.73 1016.72 1016.72 1016.72 1016.75 1016.79
1011.43 1011.84 1012.26 1012.66 1013.02 1013.30 1013.52 1013.68 1013.79 1013.88 1013.96 1014.05 1014.15 1014.28 1014.42 1014.57 1014.71 1014.84 1014.96 1015.06 1015.16 1015.26 1015.37 1015.50 1015.65 1015.81 1015.97 1016.14 1016.29 1016.41 1016.50 1016.56 1016.60 1016.62 1016.65 1016.68 1016.73 1016.80
1011.10 1011.47 1011.84 1012.19 1012.50 1012.74 1012.93 1013.07 1013.17 1013.26 1013.36 1013.47 1013.60 1013.76 1013.92 1014.09 1014.24 1014.38 1014.49 1014.59 1014.68 1014.77 1014.88 1015.00 1015.15 1015.32 1015.51 1015.70 1015.88 1016.05 1016.18 1016.29 1016.37 1016.43 1016.50 1016.57 1016.65 1016.74
1010.86 1011.17 1011.46 1011.73 1011.95 1012.12 1012.24 1012.33 1012.41 1012.49 1012.59 1012.73 1012.89 1013.08 1013.28 1013.47 1013.65 1013.81 1013.93 1014.03 1014.12 1014.20 1014.30 1014.42 1014.57 1014.76 1014.96 1015.18 1015.39 1015.59 1015.77 1015.92 1016.05 1016.16 1016.26 1016.37 1016.49 1016.61
1010.66 1010.88 1011.08 1011.24 1011.35 1011.42 1011.46 1011.48 1011.51 1011.58 1011.68 1011.83 1012.02 1012.25 1012.49 1012.72 1012.93 1013.11 1013.25 1013.36 1013.45 1013.54 1013.64 1013.77 1013.93 1014.12 1014.35 1014.59 1014.84 1015.08 1015.30 1015.50 1015.67 1015.83 1015.97 1016.11 1016.26 1016.41
1010.41 1010.55 1010.64 1010.69 1010.69 1010.65 1010.59 1010.55 1010.53 1010.57 1010.66 1010.82 1011.04 1011.30 1011.57 1011.84 1012.09 1012.29 1012.46 1012.59 1012.70 1012.80 1012.91 1013.06 1013.23 1013.45 1013.71 1013.98 1014.27 1014.55 1014.81 1015.05 1015.27 1015.46 1015.64 1015.82 1015.99 1016.17
1010.04 1010.11 1010.11 1010.06 1009.95 1009.82 1009.68 1009.57 1009.50 1009.52 1009.61 1009.78 1010.01 1010.29 1010.60 1010.89 1011.17 1011.40 1011.59 1011.74 1011.87 1012.00 1012.14 1012.31 1012.52 1012.77 1013.06 1013.37 1013.70 1014.02 1014.33 1014.61 1014.86 1015.10 1015.31 1015.51 1015.71 1015.90
1009.53 1009.53 1009.46 1009.32 1009.14 1008.93 1008.73 1008.58 1008.49 1008.48 1008.57 1008.74 1008.99 1009.29 1009.61 1009.92 1010.21 1010.46 1010.68 1010.85 1011.01 1011.16 1011.33 1011.54 1011.78 1012.07 1012.40 1012.76 1013.13 1013.50 1013.85 1014.17 1014.47 1014.74 1014.98 1015.21 1015.42 1015.63
1008.88 1008.83 1008.71 1008.51 1008.28 1008.03 1007.80 1007.62 1007.52 1007.51 1007.60 1007.78 1008.03 1008.34 1008.66 1008.97 1009.26 1009.52 1009.74 1009.93 1010.11 1010.29 1010.49 1010.74 1011.02 1011.36 1011.74 1012.14 1012.56 1012.97 1013.36 1013.72 1014.06 1014.36 1014.63 1014.88 1015.13 1015.35
1008.15 1008.06 1007.90 1007.67 1007.41 1007.15 1006.91 1006.74 1006.65 1006.65 1006.74 1006.92 1007.17 1007.46 1007.76 1008.06 1008.34 1008.58 1008.79 1008.99 1009.18 1009.38 1009.62 1009.89 1010.22 1010.60 1011.02 1011.47 1011.92 1012.37 1012.81 1013.21 1013.58 1013.91 1014.22 1014.51 1014.78 1015.03
Thickness
5719 5717 5715 5713 5712 5710 5708 5705 5700 5694 5694 5696 5699 5701 5701 5701 5701 5701 5700 5700 5699 5698 5698 5698 5698 5697 5698 5698 5698 5698 5697 5697 5696 5696 5695 5694 5693 5692
5716 5713 5711 5709 5708 5706 5705 5702 5699 5695 5691 5692 5693 5695 5695 5697 5696 5696 5696 5695 5694 5693 5693 5692 5692 5692 5692 5692 5692 5692 5692 5691 5691 5690 5690 5689 5688 5687
5710 5708 5706 5705 5703 5702 5700 5698 5695 5693 5689 5688 5688 5689 5689 5690 5690 5690 5690 5689 5689 5689 5688 5688 5687 5687 5687 5687 5687 5687 5686 5686 5685 5685 5684 5683 5682 5681
5705 5703 5701 5700 5698 5696 5695 5693 5691 5689 5686 5683 5683 5683 5683 5684 5684 5683 5684 5684 5684 5684 5684 5683 5683 5682 5682 5681 5681 5681 5681 5681 5680 5679 5678 5678 5676 5675
5701 5698 5696 5694 5692 5691 5689 5688 5686 5685 5682 5679 5678 5677 5678 5678 5677 5677 5678 5678 5678 5679 5679 5678 5678 5677 5676 5676 5676 5676 5675 5675 5675 5674 5673 5672 5670 5669
5696 5694 5692 5690 5688 5686 5684 5682 5681 5678 5676 5674 5672 5671 5671 5671 5670 5670 5670 5671 5671 5673 5673 5672 5672 5672 5671 5670 5670 5670 5669 5669 5669 5668 5667 5666 5665 5664
5691 5690 5688 5687 5686 5683 5681 5678 5676 5673 5670 5668 5666 5665 5665 5664 5663 5663 5663 5663 5664 5664 5665 5665 5665 5666 5665 5665 5664 5664 5663 5663 5662 5662 5661 5660 5659 5658
5686 5684 5683 5682 5681 5679 5677 5675 5673 5669 5667 5664 5662 5660 5659 5658 5657 5657 5656 5655 5656 5657 5656 5657 5658 5658 5659 5659 5659 5658 5657 5657 5656 5656 5655 5654 5653 5652
5681 5679 5678 5677 5674 5673 5671 5669 5668 5666 5664 5661 5659 5657 5656 5655 5652 5651 5649 5649 5649 5650 5649 5650 5651 5651 5652 5652 5652 5651 5651 5650 5650 5649 5649 5648 5647 5646
5676 5674 5672 5671 5669 5667 5665 5663 5661 5660 5659 5658 5656 5655 5653 5651 5648 5647 5645 5643 5643 5643 5642 5642 5644 5644 5646 5646 5646 5646 5645 5645 5644 5643 5642 5641 5641 5640
5671 5669 5667 5666 5664 5661 5659 5656 5655 5654 5653 5652 5651 5650 5648 5646 5644 5641 5639 5637 5637 5638 5636 5635 5637 5637 5638 5639 5639 5639 5639 5638 5637 5637 5636 5636 5635 5634
5664 5663 5661 5660 5658 5656 5653 5651 5649 5648 5647 5646 5645 5644 5642 5640 5638 5636 5634 5631 5631 5631 5631 5629 5630 5630 5631 5632 5632 5632 5631 5631 5630 5630 5630 5629 5629 5628
5659 5658 5656 5654 5652 5650 5648 5646 5645 5644 5642 5640 5638 5637 5635 5634 5632 5629 5627 5626 5625 5625 5626 5623 5623 5622 5621 5623 5625 5625 5624 5623 5623 5623 5623 5623 5622 5621
5653 5652 5650 5649 5647 5645 5642 5641 5639 5637 5635 5633 5632 5630 5629 5627 5626 5624 5622 5620 5620 5620 5620 5618 5617 5616 5615 5615 5616 5617 5616 5616 5616 5616 5617 5617 5616 5615
5647 5646 5644 5642 5641 5639 5637 5635 5633 5630 5628 5627 5626 5624 5623 5621 5619 5617 5616 5615 5615 5615 5615 5614 5613 5612 5610 5609 5609 5610 5609 5609 5609 5609 5609 5610 5610 5610
5640 5639 5637 5635 5633 5632 5630 5628 5626 5624 5622 5621 5620 5618 5616 5614 5612 5611 5610 5609 5609 5610 5609 5608 5607 5606 5604 5603 5602 5602 5602 5602 5602 5602 5602 5603 5604 5604
5633 5630 5628 5626 5625 5624 5623 5621 5619 5617 5616 5614 5613 5611 5609 5607 5605 5604 5602 5601 5601 5602 5603 5602 5600 5599 5598 5597 5596 5597 5596 5596 5596 5596 5595 5597 5598 5599
5625 5624 5622 5619 5618 5617 5616 5615 5613 5612 5610 5608 5606 5604 5602 5601 5599 5598 5596 5595 5595 5595 5595 5595 5593 5592 5592 5592 5591 5591 5591 5591 5591 5590 5591 5591 5593 5593
5617 5616 5615 5614 5612 5611 5610 5609 5608 5607 5605 5603 5601 5599 5597 5595 5593 5592 5590 5589 5589 5589 5589 5588 5587 5587 5586 5587 5588 5585 5586 5586 5586 5586 5585 5586 5587 5588
5610 5609 5608 5607 5606 5604 5604 5603 5603 5601 5599 5597 5595 5594 5591 5589 5588 5586 5585 5583 5583 5583 5583 5583 5582 5582 5582 5582 5582 5581 5580 5581 5581 5581 5581 5580 5580 5581
5604 5603 5602 5600 5600 5599 5598 5597 5596 5595 5594 5592 5590 5589 5587 5584 5583 5581 5580 5578 5577 5577 5578 5579 5578 5576 5576 5575 5575 5576 5576 5576 5576 5576 5576 5575 5576 5576
5597 5596 5595 5594 5593 5593 5592 5591 5590 5589 5588 5587 5586 5584 5583 5581 5579 5577 5576 5574 5574 5573 5573 5573 5572 5571 5570 5571 5572 5571 5571 5570 5570 5570 5570 5571 5571 5573
5592 5590 5590 5588 5588 5587 5586 5585 5584 5584 5583 5582 5580 5580 5579 5577 5575 5573 5573 5571 5570 5569 5568 5567 5566 5566 5566 5566 5566 5566 5566 5566 5566 5566 5566 5566 5566 5567